Regional Weather Roundup
Issued by NWS Goodland, KS

Home | Current Version | Previous Version | Text Only | Print | Product List | Glossary On
Versions: 1 2 3 4 5 6 7 8 9 10 11 12 13 14 15 16 17 18 19 20 21 22 23 24 25 26 27 28 29 30 31 32 33 34 35 36 37 38 39 40 41 42 43 44 45 46 47 48 49 50
000
ASUS43 KGLD 011308
RWRGLD

GOODLAND FORECAST AREA HOURLY WEATHER ROUNDUP
NATIONAL WEATHER SERVICE GOODLAND KS
600 AM MST SUN MAR 01 2015

...OFFICIAL OBSERVATIONS...

CITY           SKY/WX    TMP DP  RH WIND       PRES   REMARKS
GOODLAND KS    CLOUDY    20  18  92 SW3       30.18R
HILL CITY KS   MOCLDY    13  11  92 W5        30.29S FOG
IMPERIAL NEB     N/A     17  11  77 N3        30.22R
MCCOOK NEB     PTCLDY    13   9  84 N5        30.26R
AKRON CO       PTCLDY    12  10  92 NW6       30.13R
BURLINGTON CO  MOCLDY    16  11  80 W7        30.14R
LIMON CO       CLOUDY    11   8  88 NW12      30.09R WCI  -3
$$

...UNOFFICIAL OBSERVATIONS...

CITY           SKY/WX    TMP DP  RH WIND       PRES   REMARKS
COLBY KS       CLOUDY    21  21 100 CALM      30.22R
GOVE KS          N/A     20  32 100 MISG        N/A
LENORA KS        N/A     15  32 100 CALM        N/A
NORTON KS      CLEAR     10   7  85 W3        30.27R FOG
SHARON SPRINGS   N/A     21  19  93 CALM        N/A
KIT CARSON CO    N/A     12   9  87 MISG        N/A
YUMA CO          N/A     16  12  82 CALM        N/A
$$



USA.gov is the U.S. government's official web portal to all federal, state and local government web resources and services.